Total_Precipitation_Accumulation
0.85 0.83 0.85 0.82 0.84 0.92 0.99 1.00 0.95 0.88 0.94 0.99 0.81 0.73 0.69 0.70 0.78 0.80 0.86 0.66 0.37 0.27 0.24 0.24 0.26 0.30 0.35 0.46 0.55 0.67 0.79 0.86 0.92 1.02 1.15 1.22 1.26 1.34
0.96 0.99 0.97 0.92 0.90 0.90 0.89 0.96 1.01 1.01 0.93 0.87 0.73 0.66 0.64 0.58 0.61 0.60 0.62 0.47 0.29 0.24 0.23 0.21 0.19 0.20 0.23 0.30 0.37 0.45 0.55 0.70 0.83 0.92 1.03 1.11 1.19 1.25
0.96 0.90 0.82 0.79 0.80 0.72 0.75 0.82 0.91 0.98 0.86 0.78 0.72 0.69 0.67 0.62 0.57 0.47 0.40 0.31 0.29 0.27 0.23 0.22 0.20 0.21 0.20 0.20 0.24 0.30 0.39 0.52 0.68 0.76 0.85 0.99 1.09 1.15
0.99 0.86 0.74 0.71 0.71 0.69 0.72 0.70 0.72 0.81 0.78 0.74 0.72 0.67 0.61 0.54 0.51 0.48 0.41 0.36 0.38 0.37 0.28 0.23 0.21 0.23 0.21 0.20 0.23 0.26 0.34 0.42 0.54 0.64 0.69 0.72 0.81 0.97
0.94 0.82 0.70 0.65 0.65 0.66 0.69 0.67 0.57 0.61 0.69 0.69 0.69 0.65 0.62 0.53 0.44 0.44 0.43 0.52 0.55 0.45 0.31 0.25 0.21 0.21 0.22 0.20 0.25 0.33 0.45 0.47 0.48 0.53 0.60 0.66 0.69 0.74
0.73 0.64 0.63 0.68 0.68 0.61 0.57 0.55 0.50 0.47 0.47 0.51 0.57 0.60 0.59 0.52 0.44 0.44 0.51 0.58 0.60 0.49 0.41 0.33 0.25 0.20 0.19 0.17 0.17 0.28 0.42 0.50 0.56 0.58 0.62 0.66 0.70 0.73
0.55 0.41 0.40 0.52 0.58 0.54 0.47 0.43 0.40 0.38 0.34 0.35 0.39 0.47 0.51 0.49 0.42 0.38 0.43 0.57 0.63 0.63 0.61 0.53 0.43 0.37 0.36 0.32 0.25 0.25 0.28 0.36 0.47 0.61 0.76 0.87 0.93 0.92
0.37 0.32 0.33 0.38 0.39 0.37 0.38 0.36 0.32 0.31 0.31 0.33 0.34 0.36 0.42 0.41 0.37 0.38 0.43 0.57 0.76 0.84 0.88 0.89 0.73 0.69 0.68 0.66 0.49 0.28 0.19 0.25 0.36 0.47 0.69 0.94 1.18 1.28
0.22 0.23 0.24 0.26 0.25 0.19 0.18 0.18 0.20 0.22 0.25 0.31 0.33 0.31 0.34 0.34 0.33 0.38 0.46 0.70 0.94 1.07 1.08 1.18 1.00 0.84 0.78 0.72 0.59 0.39 0.25 0.20 0.28 0.39 0.47 0.66 0.94 1.24
0.16 0.14 0.15 0.20 0.20 0.16 0.10 0.10 0.11 0.14 0.18 0.22 0.28 0.30 0.29 0.29 0.29 0.29 0.32 0.45 0.66 0.77 0.85 1.07 1.10 1.07 0.96 0.72 0.58 0.48 0.38 0.30 0.30 0.37 0.39 0.41 0.51 0.72
0.21 0.18 0.14 0.15 0.16 0.15 0.12 0.08 0.07 0.10 0.15 0.18 0.22 0.26 0.26 0.25 0.24 0.23 0.22 0.24 0.31 0.30 0.32 0.59 0.82 0.94 1.08 1.00 0.74 0.62 0.50 0.37 0.33 0.37 0.38 0.38 0.41 0.43
0.30 0.26 0.22 0.18 0.15 0.11 0.11 0.10 0.07 0.07 0.06 0.09 0.12 0.17 0.18 0.19 0.19 0.17 0.20 0.21 0.22 0.20 0.14 0.19 0.31 0.49 0.67 0.76 0.71 0.69 0.70 0.58 0.40 0.36 0.39 0.42 0.47 0.45
0.42 0.38 0.31 0.27 0.20 0.15 0.12 0.10 0.08 0.06 0.05 0.06 0.08 0.11 0.16 0.18 0.16 0.14 0.16 0.19 0.18 0.15 0.14 0.15 0.16 0.19 0.27 0.41 0.52 0.52 0.60 0.71 0.68 0.54 0.44 0.44 0.52 0.60
0.54 0.49 0.42 0.37 0.27 0.21 0.18 0.14 0.11 0.08 0.06 0.06 0.07 0.09 0.12 0.15 0.15 0.12 0.12 0.11 0.13 0.11 0.12 0.15 0.20 0.20 0.18 0.20 0.26 0.29 0.35 0.46 0.62 0.80 0.85 0.81 0.68 0.66
0.68 0.65 0.54 0.47 0.39 0.28 0.24 0.20 0.14 0.09 0.07 0.06 0.06 0.07 0.07 0.08 0.09 0.08 0.08 0.07 0.05 0.04 0.03 0.04 0.13 0.21 0.20 0.18 0.17 0.18 0.21 0.34 0.51 0.70 0.80 0.88 0.94 0.94
0.74 0.76 0.67 0.57 0.49 0.37 0.29 0.23 0.18 0.12 0.09 0.06 0.05 0.06 0.06 0.06 0.06 0.05 0.04 0.02 0.02 0.02 0.02 0.01 0.03 0.11 0.19 0.19 0.18 0.20 0.24 0.36 0.48 0.67 0.83 0.90 0.91 0.99
0.75 0.73 0.74 0.64 0.55 0.42 0.31 0.25 0.21 0.15 0.11 0.07 0.05 0.05 0.05 0.05 0.05 0.03 0.02 0.01 0.01 0.01 0.00 0.00 0.01 0.05 0.08 0.08 0.14 0.17 0.20 0.25 0.31 0.42 0.60 0.76 0.88 0.97
0.76 0.66 0.67 0.61 0.51 0.39 0.30 0.25 0.20 0.14 0.09 0.07 0.05 0.04 0.04 0.03 0.03 0.02 0.01 0.00 0.00 0.00 0.00 0.00 0.01 0.02 0.04 0.05 0.03 0.05 0.09 0.14 0.19 0.27 0.36 0.44 0.51 0.63
0.67 0.57 0.54 0.51 0.41 0.34 0.26 0.21 0.16 0.11 0.08 0.06 0.03 0.03 0.03 0.02 0.01 0.01 0.01 0.00 0.00 0.00 0.00 0.00 0.00 0.01 0.02 0.04 0.05 0.02 0.01 0.04 0.09 0.17 0.27 0.29 0.33 0.41
0.54 0.47 0.44 0.41 0.33 0.28 0.23 0.17 0.12 0.08 0.06 0.04 0.02 0.01 0.02 0.01 0.01 0.00 0.00 0.00 0.00 0.00 0.00 0.00 0.00 0.00 0.01 0.03 0.06 0.06 0.03 0.01 0.03 0.07 0.11 0.15 0.19 0.20
0.43 0.38 0.34 0.30 0.25 0.22 0.18 0.12 0.08 0.04 0.03 0.03 0.01 0.01 0.01 0.01 0.00 0.00 0.00 0.00 0.00 0.00 0.00 0.00 0.00 0.00 0.00 0.01 0.03 0.06 0.07 0.03 0.02 0.03 0.06 0.09 0.12 0.16
0.33 0.30 0.24 0.20 0.17 0.13 0.11 0.07 0.04 0.02 0.01 0.01 0.00 0.00 0.00 0.00 0.00 0.00 0.00 0.00 0.00 0.00 0.00 0.00 0.00 0.00 0.00 0.01 0.01 0.03 0.06 0.07 0.06 0.03 0.03 0.05 0.08 0.08
0.24 0.18 0.13 0.12 0.09 0.06 0.04 0.03 0.01 0.01 0.00 0.00 0.00 0.00 0.00 0.00 0.00 0.00 0.00 0.00 0.00 0.00 0.00 0.00 0.00 0.00 0.00 0.01 0.02 0.04 0.05 0.07 0.11 0.13 0.12 0.06 0.03 0.02